Location: Rock River
(41.7433°N, 105.9768°W)
Time: 14:45:30
(UTC+00:00)

Tiangong - Visible Passes

Search period start: 24 January 2022 00:00
Search period end: 03 February 2022 00:00
Orbit: 383 x 386 km, 41.5° (Epoch: 23 January)

Date Brightness Start Highest point End Pass type
(mag) Time Alt. Az. Time Alt. Az. Time Alt. Az.
26 Jan 4.1 02:26:45 10° SSW 02:27:06 12° SSW 02:27:06 12° SSW visible
27 Jan 3.1 01:27:47 10° SSW 01:29:53 16° SSE 01:30:26 16° SE visible
28 Jan 2.4 02:03:38 10° SW 02:05:55 34° SSW 02:05:55 34° SSW visible
29 Jan 2.5 01:04:15 10° SW 01:06:58 26° SSE 01:09:06 14° ESE visible
29 Jan 4.0 02:40:24 10° WSW 02:41:18 18° WSW 02:41:18 18° WSW visible
30 Jan 1.3 01:40:39 10° WSW 01:43:46 58° SSE 01:44:26 45° ESE visible
31 Jan 2.4 02:17:32 10° W 02:19:42 40° W 02:19:42 40° W visible
01 Feb 1.1 01:17:40 10° WSW 01:20:51 76° S 01:22:44 22° E visible
01 Feb 4.4 02:54:29 10° W 02:54:56 13° W 02:54:56 13° W visible
02 Feb 0.9 01:54:35 10° W 01:57:45 87° S 01:57:57 77° ESE visible
